User: anonymous   Login
Location: Caltech
(34.1382°N, 118.1253°W)
Time: 04:43:00
(UTC-08:00)
Language:

Iridium 70 - Orbit

View from above orbital plane
View from above orbital plane
View from above satellite
View from above satellite

Ground track
Ground track

The orbit data is extracted from the following two-line orbital elements,

1 25342U 98032A   16344.53309626  .00000023  00000-0  13028-5 0  9994
2 25342  86.3953 303.5191 0002010  84.3451  52.0955 14.34213375971918
Epoch (UTC): 09 December 2016 12:47:39
Eccentricity: 0.0002010
inclination: 86.3953°
perigee height: 776 km
apogee height: 779 km
right ascension of ascending node: 303.5191°
argument of perigee: 84.3451°
revolutions per day: 14.34213375
mean anomaly at epoch: 52.0955°
orbit number at epoch: 97191

The dashed part of the orbit path shows where the satellite is in the earth's shadow,  

DLR